Regional Weather Roundup
Issued by NWS

Home | Current Version | Previous Version | Graphics & Text | Print | Product List | Glossary On
Versions: 1 2 3 4 5 6 7 8 9 10 11 12 13 14 15 16 17 18 19 20 21 22 23 24 25 26 27 28 29 30 31 32 33 34 35 36 37 38 39 40 41 42 43 44 45 46 47 48 49 50
000
ASUS43 KOAX 121210
RWRNE

WEATHER ROUNDUP FOR NEBRASKA
NATIONAL WEATHER SERVICE OMAHA NE
600 AM CST TUE DEC 12 2017

NOTES: SATELLITE DATA IS BEING USED TO AUGMENT CLOUD COVER ABOVE
       12000 FEET.
       "FAIR" INDICATES FEW OR NO CLOUDS BELOW 12,000 FEET WITH NO
       SIGNIFICANT WEATHER AND/OR OBSTRUCTIONS TO VISIBILITY.


NEZ001>004-019>022-054>056-121300-
NEBRASKA PANHANDLE

CITY           SKY/WX    TMP DP  RH WIND       PRES   REMARKS
SCOTTSBLUFF    CLOUDY    24  15  68 NW8       30.32F WCI  15
6HR MIN TEMP:  21; 6HR MAX TEMP:  27;

ALLIANCE       CLOUDY    13   8  81 W5        30.28F WCI   5
6HR MIN TEMP:   8; 6HR MAX TEMP:  14;

CHADRON        CLOUDY    23  16  74 SW9       30.29F WCI  13
6HR MIN TEMP:  14; 6HR MAX TEMP:  23;

GORDON         FAIR      21  16  82 CALM      30.25F
6HR MIN TEMP:  19; 6HR MAX TEMP:  23;

KIMBALL        CLOUDY    26  15  63 W9        30.32F WCI  16
SIDNEY         CLOUDY    24  14  65 W10       30.32F WCI  14
6HR MIN TEMP:  18; 6HR MAX TEMP:  29;

$$

NEZ057>060-069>072-079>082-121300-
SOUTHWEST NEBRASKA

CITY           SKY/WX    TMP DP  RH WIND       PRES   REMARKS
NORTH PLATTE   CLOUDY    16  14  92 NW5       30.32F WCI   9
6HR MIN TEMP:  16; 6HR MAX TEMP:  22;

IMPERIAL       CLOUDY    21  12  68 W7        30.33F WCI  12
6HR MIN TEMP:  15; 6HR MAX TEMP:  26;

LEXINGTON      CLOUDY    21  18  88 NW6       30.34F WCI  14
MCCOOK         CLOUDY    19  16  88 W8        30.36F WCI   9
6HR MIN TEMP:  18; 6HR MAX TEMP:  26;

OGALLALA       CLOUDY    16  11  82 CALM      30.33F
$$

NEZ005>010-023>029-035>040-094-121300-
NORTH CENTRAL NEBRASKA

CITY           SKY/WX    TMP DP  RH WIND       PRES   REMARKS
VALENTINE      CLOUDY    22  19  89 W7        30.27F WCI  13
6HR MIN TEMP:  20; 6HR MAX TEMP:  38;

AINSWORTH      CLOUDY    24  23  94 W6        30.27F WCI  17
BROKEN BOW     CLOUDY    29  22  75 W12       30.30F WCI  19
6HR MIN TEMP:  28; 6HR MAX TEMP:  39;

O`NEILL        CLOUDY    31  31  97 W5        30.27F WCI  27
ORD            CLOUDY    29  26  89 W7        30.29F WCI  22
6HR MIN TEMP:  29; 6HR MAX TEMP:  34;

THEDFORD       CLOUDY    23  20  89 W5        30.29F WCI  17
$$

NEZ041-046>049-061>064-073>077-083>087-121300-
SOUTH CENTRAL NEBRASKA

CITY           SKY/WX    TMP DP  RH WIND       PRES   REMARKS
GRAND ISLAND   CLOUDY    30  27  88 SW6       30.32F WCI  24
6HR MIN TEMP:  22; 6HR MAX TEMP:  30;

AURORA         CLOUDY    25  23  92 W5        30.32F WCI  19
HASTINGS       CLOUDY    31  27  85 SW5       30.33F WCI  26
6HR MIN TEMP:  21; 6HR MAX TEMP:  32;

HEBRON         CLOUDY    25  22  89 W3        30.36F
HOLDREGE       CLOUDY    23  21  91 W6        30.34S WCI  15
KEARNEY        CLOUDY    26  21  81 W6        30.33F WCI  19
YORK           CLOUDY    18  18 100 W7        30.33F WCI   8
$$

NEZ011>018-030>034-042>045-121300-
NORTHEAST NEBRASKA

CITY           SKY/WX    TMP DP  RH WIND       PRES   REMARKS
NORFOLK        CLOUDY    16  15  96 W5        30.30S WCI   9
6HR MIN TEMP:  14; 6HR MAX TEMP:  22;

ALBION         CLOUDY    23  21  90 CALM      30.30F
BLAIR          CLOUDY    16  13  88 NW3       30.32S
COLUMBUS       CLOUDY    14  11  87 W6        30.34F WCI   5
FREMONT        CLOUDY    14  11  86 NW3       30.33F
TEKAMAH        CLOUDY    14  10  84 NW5       30.34F WCI   6
6HR MIN TEMP:  13; 6HR MAX TEMP:  21;

WAYNE          CLOUDY    11   9  91 CALM      30.31S
$$

NEZ050>053-065>068-078-088>093-121300-
SOUTHEAST NEBRASKA

CITY           SKY/WX    TMP DP  RH WIND       PRES   REMARKS
LINCOLN        CLOUDY    20  15  81 W5        30.36F WCI  13
6HR MIN TEMP:  19; 6HR MAX TEMP:  30;

OMAHA EPPLEY   CLOUDY    15   9  76 NW7       30.35S WCI   5
6HR MIN TEMP:  14; 6HR MAX TEMP:  26;

BEATRICE       CLOUDY    17  15  90 W5        30.35S WCI  10
FALLS CITY     CLOUDY    18  14  84 NW9       30.35S WCI   7
6HR MIN TEMP:  18; 6HR MAX TEMP:  30;

NEBRASKA CITY  CLOUDY    17  15  93 NW8       30.34S WCI   7
PLATTSMOUTH    CLOUDY    17  14  88 W6        30.34R WCI   9
$$

NEZ044-045-051>053-067-121300-
OMAHA AREA

CITY           SKY/WX    TMP DP  RH WIND       PRES   REMARKS
OMAHA EPPLEY   CLOUDY    15   9  76 NW7       30.35S WCI   5
6HR MIN TEMP:  14; 6HR MAX TEMP:  26;

BLAIR          CLOUDY    16  13  88 NW3       30.32S
FREMONT        CLOUDY    14  11  86 NW3       30.33F
MILLARD        CLOUDY    20  14  79 NW6       30.35S WCI  12
OFFUTT AFB     CLOUDY    16  11  81 W3        30.34R
PLATTSMOUTH    CLOUDY    17  14  88 W6        30.34R WCI   9
WAHOO          FAIR      19  14  82 NW5       30.33F WCI  12
$$




USA.gov is the U.S. government's official web portal to all federal, state and local government web resources and services.